Weather reports worldwide

Advertisment
Torino/Caselle, Italy (16059): temperature & dewpoint: 17.01.2019 03:00:00 - 23.01.2019 03:00:00 (CET)Torino/Caselle, Italy (16059): wind speed: 17.01.2019 03:00:00 - 23.01.2019 03:00:00 (CET)Torino/Caselle, Italy (16059): wind direction: 17.01.2019 03:00:00 - 23.01.2019 03:00:00 (CET)Torino/Caselle, Italy (16059): reduced air pressure: 17.01.2019 03:00:00 - 23.01.2019 03:00:00 (CET)Torino/Caselle, Italy (16059): visibility: 17.01.2019 03:00:00 - 23.01.2019 03:00:00 (CET)Torino/Caselle, Italy (16059): precipitation: 17.01.2019 03:00:00 - 23.01.2019 03:00:00 (CET)
Date & Time tt [°C] td [°C] ff [km/h] ff [kn] dd ppp [hPa] vv [km] rr [mm]
23.01.2019 03:00:00 -3,0 -5,0 4 2 NNW - 10 -
23.01.2019 02:00:00 -3,0 -6,0 4 2 - - 10 -
23.01.2019 01:00:00 -3,2 -4,7 4 2 NNW 1000,4 10 -
23.01.2019 00:00:00 -2,0 -5,0 4 2 NW - 7 -
22.01.2019 23:00:00 -2,0 -4,0 2 1 - - 7 -
22.01.2019 22:00:00 -0,8 -3,9 5 3 NW 1002,0 7 0,0
22.01.2019 21:00:00 0,0 -3,0 9 5 WNW - 7 -
22.01.2019 20:00:00 0,0 -3,0 8 4 NNW - 7 -
22.01.2019 19:00:00 2,1 -2,1 5 3 SW 1003,2 10 -
22.01.2019 18:00:00 3,0 -2,0 4 2 ENE - 10 -
22.01.2019 17:00:00 5,0 -3,0 4 2 ESE - 10 -
22.01.2019 16:00:00 5,3 -2,4 5 3 ESE 1004,5 10 0,0
22.01.2019 15:00:00 5,0 -3,0 5 3 ENE - 10 -
22.01.2019 14:00:00 5,0 -3,0 5 3 E - 10 -
22.01.2019 13:00:00 3,9 -2,3 5 3 E 1008,1 10 -
22.01.2019 12:00:00 3,0 -4,0 8 4 E - 10 -
22.01.2019 11:00:00 2,0 -2,0 4 2 ESE - 10 -
22.01.2019 10:00:00 -0,8 -2,7 4 2 ESE 1010,2 10 0,0
22.01.2019 09:00:00 -2,0 -5,0 8 4 WNW - 10 -
22.01.2019 08:00:00 -4,0 -6,0 8 4 WNW - 10 -
22.01.2019 07:00:00 -3,0 -5,5 9 5 WNW 1010,9 10 -
22.01.2019 06:00:00 -2,0 -5,0 4 2 NW - 10 -
22.01.2019 05:00:00 -2,0 -5,0 5 3 NNW - 10 -
22.01.2019 04:00:00 -2,9 -5,1 4 2 WNW 1012,4 10 0,0
22.01.2019 03:00:00 -1,0 -5,0 5 3 NNW - 10 -
22.01.2019 02:00:00 -3,0 -5,0 4 2 - - 10 -
22.01.2019 01:00:00 -1,8 -4,9 9 5 W 1014,3 10 -
22.01.2019 00:00:00 -1,0 -3,0 8 4 W - 10 -
21.01.2019 23:00:00 1,0 -3,0 8 4 NW - 10 -
21.01.2019 22:00:00 -0,2 -3,0 4 2 WNW 1015,0 10 0,0
21.01.2019 21:00:00 0,0 -3,0 5 3 NW - 10 -
21.01.2019 20:00:00 2,0 -2,0 8 4 NW - 10 -
21.01.2019 19:00:00 3,1 -2,5 8 4 W 1015,0 10 -
21.01.2019 18:00:00 5,0 -2,0 4 2 S - 10 -
21.01.2019 17:00:00 6,0 -2,0 4 2 ESE - 10 -
21.01.2019 16:00:00 7,0 -2,5 4 2 - 1015,3 10 0,0
21.01.2019 15:00:00 7,0 -3,0 4 2 - - 10 -
21.01.2019 14:00:00 7,0 -2,0 2 1 - - 10 -
21.01.2019 13:00:00 6,0 -1,0 2 1 - 1016,9 10 -
21.01.2019 12:00:00 4,0 -1,0 2 1 - - 10 -
21.01.2019 11:00:00 3,0 -2,0 2 1 - - 10 -
21.01.2019 10:00:00 0,0 -2,4 2 1 - 1017,7 10 0,0
21.01.2019 09:00:00 -2,0 -5,0 4 2 - - 10 -
21.01.2019 08:00:00 -2,0 -4,0 5 3 NW - 10 -
21.01.2019 07:00:00 -2,1 -3,7 8 4 WNW 1016,9 10 -
21.01.2019 06:00:00 -2,0 -4,0 5 3 WSW - 10 -
21.01.2019 05:00:00 -3,0 -4,0 5 3 WNW - 10 -
21.01.2019 04:00:00 -2,8 -3,7 8 4 W 1016,4 10 0,0
21.01.2019 03:00:00 -3,0 -4,0 4 2 - - 10 -
21.01.2019 02:00:00 -2,0 -3,0 8 4 WNW - 8 -
21.01.2019 01:00:00 -1,3 -2,1 4 2 W 1016,5 7 -
21.01.2019 00:00:00 -2,0 -2,0 2 1 - - 6 -
20.01.2019 23:00:00 1,0 -1,0 4 2 NW - 8 -
20.01.2019 22:00:00 0,3 -1,1 5 3 NNW 1015,8 10 0,0
20.01.2019 21:00:00 1,0 -1,0 4 2 - - 10 -
20.01.2019 20:00:00 1,0 -1,0 5 3 WNW - 10 -
20.01.2019 19:00:00 2,9 -0,6 8 4 SW 1014,5 10 -
20.01.2019 18:00:00 4,0 -1,0 5 3 SW - 10 -
20.01.2019 17:00:00 5,0 0,0 4 2 - - 10 -
20.01.2019 16:00:00 5,7 -0,2 5 3 SE 1013,5 8 0,0
20.01.2019 15:00:00 6,0 0,0 5 3 SSE - 10 -
20.01.2019 14:00:00 6,0 0,0 4 2 - - 8 -
20.01.2019 13:00:00 4,7 0,6 5 3 SE 1014,4 8 -
20.01.2019 12:00:00 4,0 2,0 4 2 - - 6 -
20.01.2019 11:00:00 2,0 1,0 4 2 - - 6 -
20.01.2019 10:00:00 0,1 0,1 4 2 - 1014,5 5 0,0
20.01.2019 09:00:00 -1,0 -1,0 5 3 NW - 5 -
20.01.2019 08:00:00 -2,0 -2,0 2 1 WNW - 2,0 -
20.01.2019 07:00:00 -1,3 -1,3 2 1 - 1013,6 4,0 -
20.01.2019 06:00:00 0,0 0,0 2 1 - - 10 -
20.01.2019 05:00:00 1,0 1,0 5 3 W - 10 -
20.01.2019 04:00:00 0,8 0,6 4 2 NW 1014,1 10 0,0
20.01.2019 03:00:00 1,0 0,0 4 2 N - 10 -
20.01.2019 02:00:00 1,0 1,0 2 1 ENE - 10 -
20.01.2019 01:00:00 1,4 1,2 2 1 - 1014,9 10 -
20.01.2019 00:00:00 2,0 1,0 4 2 N - 10 -
19.01.2019 23:00:00 2,0 1,0 4 2 N - 10 -
19.01.2019 22:00:00 2,4 1,0 4 2 N 1015,1 10 0,0
19.01.2019 21:00:00 3,0 1,0 5 3 WNW - 10 -
19.01.2019 20:00:00 3,0 0,0 4 2 NW - 10 -
19.01.2019 19:00:00 3,2 -0,3 4 2 N 1015,1 10 -
19.01.2019 18:00:00 3,0 0,0 2 1 E - 10 -
19.01.2019 17:00:00 3,0 1,0 4 2 E - 10 -
19.01.2019 16:00:00 3,6 0,3 4 2 - 1015,2 10 0,0
19.01.2019 15:00:00 4,0 0,0 4 2 - - 10 -
19.01.2019 14:00:00 4,0 1,0 4 2 - - 10 -
19.01.2019 13:00:00 3,4 1,0 4 2 - 1016,8 10 -
19.01.2019 12:00:00 3,0 1,0 5 3 NNW - 10 -
19.01.2019 11:00:00 3,0 1,0 5 3 NNW - 10 -
19.01.2019 10:00:00 2,2 1,5 5 3 N 1017,5 8 0,0
19.01.2019 09:00:00 2,0 2,0 8 4 N - 8 -
19.01.2019 08:00:00 2,0 2,0 11 6 NNW - 7 -
19.01.2019 07:00:00 2,2 2,2 5 3 ENE 1016,8 7 -
19.01.2019 06:00:00 3,0 2,0 11 6 E - 7 -
19.01.2019 05:00:00 3,0 2,0 13 7 NE - 8 -
19.01.2019 04:00:00 3,2 2,3 9 5 NNE 1016,6 8 0,0
19.01.2019 03:00:00 4,0 2,0 8 4 NNE - 8 -
19.01.2019 02:00:00 4,0 2,0 8 4 N - 7 -
19.01.2019 01:00:00 4,4 2,4 8 4 N 1016,9 7 -
19.01.2019 00:00:00 5,0 2,0 8 4 N - 8 -
18.01.2019 23:00:00 5,0 3,0 8 4 N - 8 -
18.01.2019 22:00:00 4,7 2,5 9 5 N 1016,3 8 0,0
18.01.2019 21:00:00 4,0 2,0 15 8 N - 9 -
18.01.2019 20:00:00 3,0 -4,0 16 9 NNE - 10 -
18.01.2019 19:00:00 3,4 -4,9 11 6 NW 1013,7 10 -
18.01.2019 18:00:00 7,0 -5,0 8 4 WNW - 10 -
18.01.2019 17:00:00 8,0 -6,0 5 3 WSW - 10 -
18.01.2019 16:00:00 9,4 -6,2 4 2 - 1012,6 10 0,0
18.01.2019 15:00:00 10,0 -5,0 8 4 S - 10 -
18.01.2019 14:00:00 10,0 -4,0 8 4 S - 6 -
18.01.2019 13:00:00 9,4 -2,7 8 4 S 1012,0 10 -
18.01.2019 12:00:00 8,0 1,0 8 4 SSW - 10 -
18.01.2019 11:00:00 4,0 2,0 4 2 - - 10 -
18.01.2019 10:00:00 3,9 0,6 5 3 WNW 1011,9 10 0,0
18.01.2019 09:00:00 0,0 -1,0 11 6 WNW - 3,0 -
18.01.2019 08:00:00 -1,0 -1,0 9 5 WSW - 10 -
18.01.2019 07:00:00 -3,3 -4,8 11 6 W 1009,9 10 -
18.01.2019 06:00:00 -2,0 -2,0 4 2 - - 6 -
18.01.2019 05:00:00 -2,0 -2,0 4 2 - - 6 -
18.01.2019 04:00:00 -0,7 -1,1 8 4 WNW 1010,0 6 0,0
18.01.2019 03:00:00 0,0 -1,0 9 5 NNW - 6 -
18.01.2019 02:00:00 0,0 0,0 9 5 WNW - 5 -
18.01.2019 01:00:00 0,9 0,9 8 4 W 1010,3 3,0 -
18.01.2019 00:00:00 1,0 1,0 8 4 NW - 2,5 -
17.01.2019 23:00:00 3,0 3,0 5 3 W - 4,0 -
17.01.2019 22:00:00 3,6 3,6 2 1 - 1011,1 5 0,0
17.01.2019 21:00:00 5,0 4,0 4 2 N - 6 -
17.01.2019 20:00:00 5,0 4,0 4 2 NNE - 8 -
17.01.2019 19:00:00 5,5 3,3 5 3 N 1011,1 8 -
17.01.2019 18:00:00 6,0 4,0 5 3 ENE - 10 -
17.01.2019 17:00:00 - - - - - - - -
17.01.2019 16:00:00 8,3 3,1 13 7 E 1011,1 10 0,0
17.01.2019 15:00:00 10,0 2,0 8 4 E - 10 -
17.01.2019 14:00:00 9,0 1,0 4 2 - - 10 -
17.01.2019 13:00:00 8,9 1,5 2 1 - 1012,7 10 -
17.01.2019 12:00:00 9,0 2,0 2 1 - - 10 -
17.01.2019 11:00:00 7,0 1,0 4 2 - - 10 -
17.01.2019 10:00:00 2,9 0,3 2 1 - 1014,6 10 0,0
17.01.2019 09:00:00 2,0 -2,0 4 2 - - 10 -
17.01.2019 08:00:00 1,0 -2,0 4 2 - - 10 -
17.01.2019 07:00:00 2,8 -1,5 4 2 - 1014,5 10 -
17.01.2019 06:00:00 3,0 -1,0 2 1 - - 10 -
17.01.2019 05:00:00 4,0 -2,0 5 3 WNW - 10 -
17.01.2019 04:00:00 2,0 -2,8 5 3 WNW 1015,6 10 0,0
17.01.2019 03:00:00 1,0 -4,0 4 2 WNW - 10 -

tt = temperature
td = dewpoint
ff = wind speed
dd = wind direction
ppp = reduced air pressure
vv = visibility
rr = precipitation

Next stations